Weather History for Fullerton, CA

Change the Weather History Date:

Friday, December 21, 2012

  Actual Average Record
Temperature  
Mean Temperature 54 °F 56 °F  
Max Temperature 68 °F 67 °F 81 °F (2005)
Min Temperature 39 °F 44 °F 37 °F (1998)
Degree Days  
Heating Degree Days 11 9  
Month to date heating degree days 97 183  
Since 1 July heating degree days 155 347  
Cooling Degree Days 0 0  
Month to date cooling degree days 4 0  
Year to date cooling degree days 2042 1251  
Growing Degree Days 4 (Base 50)    
Moisture  
Dew Point 34 °F    
Average Humidity 42    
Maximum Humidity 64    
Minimum Humidity 19    
Precipitation  
Precipitation 0.00 in 0.06 in 0.67 in (2010)
Month to date precipitation 1.45 1.01  
Year to date precipitation 5.99 12.84  
Since 1 July precipitation 2.46 3.19  
Snow  
Snow 0.00 in - - ()
Month to date snowfall 0.0  
Year to date snowfall 0.0  
Since 1 July snowfall 0.0  
Snow Depth 0.00 in    
Sea Level Pressure  
Sea Level Pressure 30.07 in    
Wind  
Wind Speed 1 mph (South)    
Max Wind Speed 7 mph    
Max Gust Speed 9 mph    
Visibility 10 miles    
Events      
T = Trace of Precipitation, MM = Missing Value Source: NWS Daily Summary

Daily Weather History Graph

Daily Weather History Graph

Search for Another Location

Airport:

Trip Planner

Search our weather history database for the weather conditions in past years. The results will help you decide how hot, cold, wet, or windy it might be!

Date:

Astronomy

Dec. 21, 2012 Rise Set
Actual Time 6:53 AM PST 4:47 PM PST
Civil Twilight 6:25 AM PST 5:15 PM PST
Nautical Twilight 5:54 AM PST 5:46 PM PST
Astronomical Twilight 5:23 AM PST 6:16 PM PST
Moon 12:26 PM PST (12/21) 12:56 AM PST (12/21)
Length of Visible Light 10h 49m
Length of Day
9h 54m
Waxing Gibbous, 66% of the Moon is Illuminated
Dec 21
Waxing Gibbous
Dec 28
Full
Jan 4
Last Quarter
Jan 11
New
Jan 18
First Quarter

Hourly Weather History & Observations

Time (PST) Temp. Windchill Dew Point Humidity Pressure Visibility Wind Dir Wind Speed Gust Speed Precip Events Conditions
12:53 AM 44.1 °F - 28.9 °F 55% 30.07 in 10.0 mi Calm Calm - N/A   Clear
1:53 AM 43.0 °F - 28.0 °F 56% 30.06 in 10.0 mi Calm Calm - N/A   Clear
2:53 AM 41.0 °F - 28.0 °F 60% 30.06 in 10.0 mi Calm Calm - N/A   Clear
3:53 AM 41.0 °F - 28.0 °F 60% 30.05 in 10.0 mi Calm Calm - N/A   Clear
4:53 AM 41.0 °F - 28.0 °F 60% 30.05 in 10.0 mi Calm Calm - N/A   Clear
5:53 AM 41.0 °F - 28.0 °F 60% 30.05 in 10.0 mi Calm Calm - N/A   Clear
6:53 AM 39.0 °F - 28.0 °F 65% 30.06 in 10.0 mi Calm Calm - N/A   Clear
7:53 AM 46.0 °F 44.8 °F 26.1 °F 46% 30.09 in 10.0 mi East 3.5 mph - N/A   Clear
8:53 AM 53.1 °F - 27.0 °F 37% 30.12 in 10.0 mi Calm Calm - N/A   Clear
9:53 AM 59.0 °F - 39.9 °F 49% 30.13 in 10.0 mi Calm Calm - N/A   Clear
10:53 AM 62.1 °F - 37.9 °F 41% 30.12 in 10.0 mi SE 3.5 mph - N/A   Clear
11:53 AM 64.0 °F - 36.0 °F 35% 30.07 in 10.0 mi Calm Calm - N/A   Clear
12:53 PM 66.0 °F - 30.9 °F 27% 30.06 in 10.0 mi Variable 3.5 mph - N/A   Clear
1:53 PM 68.0 °F - 24.1 °F 19% 30.04 in 10.0 mi Calm Calm - N/A   Clear
2:53 PM 66.9 °F - 25.0 °F 21% 30.04 in 10.0 mi Calm Calm - N/A   Clear
3:53 PM 63.0 °F - 39.9 °F 43% 30.04 in 10.0 mi SW 5.8 mph - N/A   Clear
4:53 PM 59.0 °F - 44.1 °F 58% 30.05 in 10.0 mi SW 3.5 mph - N/A   Clear
5:53 PM 57.0 °F - 43.0 °F 59% 30.06 in 10.0 mi Calm Calm - N/A   Clear
6:53 PM 55.0 °F - 43.0 °F 64% 30.07 in 10.0 mi Calm Calm - N/A   Clear
7:53 PM 51.1 °F - 42.1 °F 71% 30.08 in 10.0 mi Calm Calm - N/A   Clear
8:53 PM 48.9 °F - 41.0 °F 74% 30.09 in 10.0 mi Calm Calm - N/A   Clear
9:53 PM 48.9 °F - 41.0 °F 74% 30.10 in 10.0 mi Calm Calm - N/A   Clear
10:53 PM 48.0 °F - 39.9 °F 74% 30.09 in 10.0 mi Calm Calm - N/A   Clear
11:53 PM 46.9 °F - 39.0 °F 74% 30.09 in 10.0 mi Calm Calm - N/A   Clear